This demonstration page uses our WeatherBlox Daily Observations layout. Learn more.

40.92945, -100.16068

Hourly Observations for December 21, 2019

Temp ( °F °C ) Dew Point ( °F °C ) Humidity (%) Winds ( mph kmh ) Pressure ( in mb ) Visibility ( mi km ) Precip ( " mm )
12:15 am 00:15 Clear 24 -4.5 22 -5.6 92 92 Calm 30.37 1029 10 16.0934 0 0
12:35 am 00:35 Clear 24 -4.6 22 -5.8 91 91 Calm 30.36 1028 10 16.0934 0 0
12:55 am 00:55 Clear 24 -4.7 22 -5.8 92 92 Calm 30.37 1028 10 16.0934 0 0
1:15 am 01:15 Clear 24 -4.7 22 -5.6 94 94 Calm 30.37 1028 10 16.0934 0 0
1:35 am 01:35 Clear 24 -4.5 22 -5.5 93 93 Calm 30.36 1028 10 16.0934 0 0
1:55 am 01:55 Clear 24 -4.5 22 -5.8 91 91 Calm 30.36 1028 10 16.0934 0 0
2:15 am 02:15 Clear 24 -4.7 22 -5.7 93 93 Calm 30.36 1028 10 16.0934 0 0
2:35 am 02:35 Clear 23 -5 21 -6.1 92 92 Calm 30.36 1028 10 16.0934 0 0
2:55 am 02:55 Clear 23 -4.8 21 -6.3 89 89 Calm 30.37 1028 10 16.0934 0 0
3:15 am 03:15 Clear 24 -4.6 21 -6 90 90 Calm 30.36 1028 10 16.0934 0 0
3:35 am 03:35 Clear 23 -4.9 21 -6.1 91 91 Calm 30.36 1028 10 16.0934 0 0
3:55 am 03:55 Clear 22 -5.5 20 -6.7 91 91 W 3 6 30.37 1029 10 16.0934 0 0
4:15 am 04:15 Clear 22 -5.7 20 -6.7 93 93 W 5 7 30.37 1028 10 16.0934 0 0
4:35 am 04:35 Clear 22 -5.8 20 -6.7 93 93 W 6 9 30.37 1028 10 16.0934 0 0
4:55 am 04:55 Clear 23 -5.1 21 -6 93 93 W 5 7 30.36 1028 10 16.0934 0 0
5:15 am 05:15 Clear 23 -4.8 21 -6.1 91 91 W 7 11 30.36 1028 10 16.0934 0 0
5:35 am 05:35 Clear 24 -4.7 21 -6 91 91 W 6 9 30.35 1028 10 16.0934 0 0
5:55 am 05:55 Clear 23 -4.8 21 -6.1 91 91 WSW 3 6 30.35 1028 10 16.0934 0 0
6:15 am 06:15 Clear 22 -5.4 20 -6.6 91 91 SW 3 6 30.34 1028 10 16.0934 0 0
6:35 am 06:35 Clear 23 -5.2 20 -6.5 91 91 Calm 30.34 1027 10 16.0934 0 0
6:55 am 06:55 Clear 22 -5.6 19 -7 90 90 W 3 6 30.34 1028 10 16.0934 0 0
7:15 am 07:15 Clear 21 -6 19 -7.1 92 92 Calm 30.36 1028 10 16.0934 0 0
7:35 am 07:35 Clear 21 -6 19 -7.3 91 91 Calm 30.36 1028 10 16.0934 0 0
7:55 am 07:55 Clear 22 -5.5 20 -6.7 91 91 W 5 7 30.35 1028 10 16.0934 0 0
8:15 am 08:15 Sunny 21 -6 19 -7.1 92 92 Calm 30.36 1028 10 16.0934 0 0
8:35 am 08:35 Sunny 22 -5.5 20 -6.6 92 92 W 3 6 30.35 1028 10 16.0934 0 0
8:55 am 08:55 Sunny 25 -4.1 23 -5.2 92 92 W 3 6 30.34 1027 10 16.0934 0 0
9:15 am 09:15 Sunny 28 -2.1 25 -3.8 88 88 Calm 30.32 1027 10 16.0934 0 0
9:35 am 09:35 Sunny 31 -0.8 26 -3.1 85 85 Calm 30.32 1027 10 16.0934 0 0
9:55 am 09:55 Sunny 32 0 26 -3.1 80 80 Calm 30.31 1026 10 16.0934 0 0
10:15 am 10:15 Sunny 33 0.5 28 -2.3 82 82 Calm 30.3 1026 10 16.0934 0 0
10:35 am 10:35 Sunny 35 1.5 29 -1.4 81 81 Calm 30.28 1025 10 16.0934 0 0
10:55 am 10:55 Sunny 37 2.9 30 -0.9 76 76 Calm 30.27 1025 10 16.0934 0 0
11:15 am 11:15 Sunny 40 4.2 32 0 74 74 Calm 30.25 1024 10 16.0934 0 0
11:35 am 11:35 Sunny 42 5.6 33 0.4 70 70 Calm 30.23 1024 10 16.0934 0 0
11:55 am 11:55 Sunny 45 7.3 34 1.1 65 65 Calm 30.21 1023 10 16.0934 0 0
12:15 pm 12:15 Sunny 51 10.3 31 -0.3 48 48 WSW 7 11 30.17 1022 10 16.0934 0 0
12:35 pm 12:35 Sunny 52 10.9 28 -2.2 40 40 WSW 9 15 30.14 1021 10 16.0934 0 0
12:55 pm 12:55 Sunny 53 11.8 29 -1.4 40 40 SW 9 15 30.11 1020 10 16.0934 0 0
1:15 pm 13:15 Sunny 54 12.2 29 -1.7 38 38 SW 9 15 30.11 1020 10 16.0934 0 0
1:35 pm 13:35 Sunny 55 12.5 30 -0.9 40 40 SW 10 17 30.1 1019 10 16.0934 0 0
1:55 pm 13:55 Sunny 55 12.7 30 -1.1 39 39 SSW 10 17 30.09 1019 10 16.0934 0 0
2:15 pm 14:15 Sunny 55 12.8 30 -1.1 38 38 SW 9 15 30.09 1019 10 16.0934 0 0
2:35 pm 14:35 Sunny 55 12.8 29 -1.8 37 37 SW 10 17 30.08 1018 10 16.0934 0 0
2:55 pm 14:55 Sunny 55 12.9 30 -1.1 38 38 SSW 12 19 30.08 1019 10 16.0934 0 0
3:15 pm 15:15 Sunny 54 12.4 29 -1.6 38 38 SSW 10 17 30.09 1019 10 16.0934 0 0
3:35 pm 15:35 Sunny 53 11.6 31 -0.4 44 44 SSW 12 19 30.1 1019 10 16.0934 0 0
3:55 pm 15:55 Sunny 53 11.8 29 -1.4 40 40 SSW 8 13 30.1 1019 10 16.0934 0 0
4:15 pm 16:15 Sunny 52 11.2 29 -1.8 41 41 SW 8 13 30.11 1020 10 16.0934 0 0
4:35 pm 16:35 Sunny 51 10.4 29 -1.8 43 43 SSW 8 13 30.11 1020 10 16.0934 0 0
4:55 pm 16:55 Sunny 48 8.7 28 -2.1 47 47 SSW 7 11 30.12 1020 10 16.0934 0 0
5:15 pm 17:15 Clear 46 7.6 28 -2.5 49 49 SSW 7 11 30.13 1020 10 16.0934 0 0
5:35 pm 17:35 Clear 43 5.9 27 -2.7 54 54 SSW 8 13 30.15 1021 10 16.0934 0 0
5:55 pm 17:55 Clear 39 4.1 26 -3.1 60 60 SSW 7 11 30.18 1022 10 16.0934 0 0
6:15 pm 18:15 Clear 38 3.5 27 -3 63 63 SSW 6 9 30.18 1022 10 16.0934 0 0
6:35 pm 18:35 Clear 42 5.8 26 -3.3 52 52 SW 7 11 30.16 1021 10 16.0934 0 0
6:55 pm 18:55 Clear 43 5.9 26 -3.5 51 51 SW 5 7 30.16 1021 10 16.0934 0 0
7:15 pm 19:15 Clear 39 3.7 26 -3.1 61 61 Calm 30.17 1022 10 16.0934 0 0
7:35 pm 19:35 Clear 34 1 27 -2.8 76 76 Calm 30.21 1023 10 16.0934 0 0
7:55 pm 19:55 Clear 34 0.9 27 -3 75 75 Calm 30.2 1023 10 16.0934 0 0
8:15 pm 20:15 Clear 33 0.6 27 -3 77 77 Calm 30.2 1023 10 16.0934 0 0
8:35 pm 20:35 Clear 32 0 27 -2.9 81 81 Calm 30.21 1023 10 16.0934 0 0
8:55 pm 20:55 Clear 32 0.2 27 -2.6 82 82 ENE 6 9 30.22 1023 10 16.0934 0 0
9:15 pm 21:15 Clear 32 0 27 -3 80 80 Calm 30.21 1023 10 16.0934 0 0
9:35 pm 21:35 Clear 31 -0.8 26 -3.3 83 83 Calm 30.22 1023 10 16.0934 0 0
9:55 pm 21:55 Clear 31 -0.8 27 -3 85 85 Calm 30.22 1023 10 16.0934 0 0
10:15 pm 22:15 Clear 30 -1.1 26 -3.1 86 86 Calm 30.22 1023 10 16.0934 0 0
10:35 pm 22:35 Clear 29 -1.5 26 -3.5 86 86 SSE 5 7 30.22 1023 10 16.0934 0 0
10:55 pm 22:55 Clear 32 0.1 25 -3.8 75 75 SSE 3 6 30.21 1023 10 16.0934 0 0
11:15 pm 23:15 Clear 32 0.1 25 -3.8 75 75 S 5 7 30.21 1023 10 16.0934 0 0
11:35 pm 23:35 Clear 29 -1.7 26 -3.6 87 87 Calm 30.22 1024 10 16.0934 0 0
11:55 pm 23:55 Clear 28 -2 25 -3.7 88 88 Calm 30.22 1023 10 16.0934 0 0

Powered by AerisWeather